Time,TemperatureF,DewpointF,PressureIn,WindDirection,WindDirectionDegrees,WindSpeedMPH,WindSpeedGustMPH,Humidity,HourlyPrecipIn,Conditions,Clouds,dailyrainin,SoftwareType,DateUTC
2013-11-10 00:00:00,36.3,29.9,-100.00,SSW,199,0.9,3.8,77,0.00,,,-99.99,HOBO +U30 +Weather +,2013-11-10 05:00:00,
2013-11-10 00:15:00,36.5,30.4,-100.00,SSW,198,0.4,2.9,78,0.00,,,-99.99,HOBO +U30 +Weather +,2013-11-10 05:15:00,
2013-11-10 00:30:00,36.7,30.7,-100.00,SSW,199,0.9,3.4,78,0.00,,,-99.99,HOBO +U30 +Weather +,2013-11-10 05:30:00,
2013-11-10 00:45:00,37.4,30.8,-100.00,SSW,199,1.3,3.4,77,0.00,,,-99.99,HOBO +U30 +Weather +,2013-11-10 05:45:00,
2013-11-10 01:00:00,37.4,31.2,-100.00,SSW,199,1.3,3.8,78,0.00,,,-99.99,HOBO +U30 +Weather +,2013-11-10 06:00:00,
2013-11-10 01:15:00,37.4,31.3,-100.00,SSW,199,2.0,4.3,78,0.00,,,-99.99,HOBO +U30 +Weather +,2013-11-10 06:15:00,
2013-11-10 01:30:00,36.8,31.2,-100.00,SSW,198,1.3,3.8,80,0.00,,,-99.99,HOBO +U30 +Weather +,2013-11-10 06:30:00,
2013-11-10 01:45:00,36.8,31.5,-100.00,SSW,194,1.3,3.8,81,0.00,,,-99.99,HOBO +U30 +Weather +,2013-11-10 06:45:00,
2013-11-10 02:00:00,36.9,31.6,-100.00,SSW,194,0.9,3.4,81,0.00,,,-99.99,HOBO +U30 +Weather +,2013-11-10 07:00:00,
2013-11-10 02:15:00,36.8,31.7,-100.00,South,191,0.4,3.8,81,0.00,,,-99.99,HOBO +U30 +Weather +,2013-11-10 07:15:00,
2013-11-10 02:30:00,37.5,32.3,-100.00,South,191,0.4,2.9,81,0.00,,,-99.99,HOBO +U30 +Weather +,2013-11-10 07:30:00,
2013-11-10 02:45:00,37.8,32.8,-100.00,South,191,0.9,3.4,81,0.00,,,-99.99,HOBO +U30 +Weather +,2013-11-10 07:45:00,
2013-11-10 03:00:00,38.9,33.6,-100.00,SSW,198,2.5,6.7,81,0.00,,,-99.99,HOBO +U30 +Weather +,2013-11-10 08:00:00,
2013-11-10 03:15:00,38.8,33.3,-100.00,SW,225,2.0,5.8,80,0.00,,,-99.99,HOBO +U30 +Weather +,2013-11-10 08:15:00,
2013-11-10 03:30:00,36.9,34.4,-100.00,SW,229,0.9,3.4,90,0.00,,,-99.99,HOBO +U30 +Weather +,2013-11-10 08:30:00,
2013-11-10 03:45:00,37.3,35.4,-100.00,SW,230,1.3,4.5,92,0.00,,,-99.99,HOBO +U30 +Weather +,2013-11-10 08:45:00,
2013-11-10 04:00:00,38.0,36.5,-100.00,WSW,248,1.6,6.7,94,0.00,,,-99.99,HOBO +U30 +Weather +,2013-11-10 09:00:00,
2013-11-10 04:15:00,38.2,36.9,-100.00,West,260,2.0,4.9,95,0.00,,,-99.99,HOBO +U30 +Weather +,2013-11-10 09:15:00,
2013-11-10 04:30:00,38.3,37.2,-100.00,West,268,2.5,6.3,95,0.05,,,-99.99,HOBO +U30 +Weather +,2013-11-10 09:30:00,
2013-11-10 04:45:00,38.8,37.8,-100.00,West,264,2.5,5.4,95,0.05,,,-99.99,HOBO +U30 +Weather +,2013-11-10 09:45:00,
2013-11-10 05:00:00,38.8,37.8,-100.00,WSW,256,2.5,6.3,96,0.00,,,-99.99,HOBO +U30 +Weather +,2013-11-10 10:00:00,
2013-11-10 05:15:00,39.1,38.2,-100.00,WSW,240,2.5,5.8,96,0.00,,,-99.99,HOBO +U30 +Weather +,2013-11-10 10:15:00,
2013-11-10 05:30:00,38.3,37.5,-100.00,SW,234,2.0,5.8,96,0.00,,,-99.99,HOBO +U30 +Weather +,2013-11-10 10:30:00,
2013-11-10 05:45:00,37.7,36.9,-100.00,SW,233,0.4,2.5,96,0.00,,,-99.99,HOBO +U30 +Weather +,2013-11-10 10:45:00,
2013-11-10 06:00:00,38.4,37.7,-100.00,SW,233,0.4,3.4,97,0.00,,,-99.99,HOBO +U30 +Weather +,2013-11-10 11:00:00,
2013-11-10 06:15:00,39.7,38.9,-100.00,SW,230,2.5,4.9,97,0.00,,,-99.99,HOBO +U30 +Weather +,2013-11-10 11:15:00,
2013-11-10 06:30:00,40.2,39.5,-100.00,WSW,246,2.9,6.3,97,0.00,,,-99.99,HOBO +U30 +Weather +,2013-11-10 11:30:00,
2013-11-10 06:45:00,40.9,40.2,-100.00,West,260,3.8,9.6,97,0.00,,,-99.99,HOBO +U30 +Weather +,2013-11-10 11:45:00,
2013-11-10 07:00:00,41.1,40.4,-100.00,WSW,247,4.5,10.7,97,0.00,,,-99.99,HOBO +U30 +Weather +,2013-11-10 12:00:00,
2013-11-10 07:15:00,41.5,40.7,-100.00,WSW,243,3.8,7.8,96,0.00,,,-99.99,HOBO +U30 +Weather +,2013-11-10 12:15:00,
2013-11-10 07:30:00,41.5,40.6,-100.00,WSW,244,4.3,7.4,96,0.00,,,-99.99,HOBO +U30 +Weather +,2013-11-10 12:30:00,
2013-11-10 07:45:00,42.0,41.2,-100.00,WSW,253,3.8,9.2,96,0.00,,,-99.99,HOBO +U30 +Weather +,2013-11-10 12:45:00,
2013-11-10 08:00:00,43.3,42.2,-100.00,West,261,4.3,8.3,96,0.00,,,-99.99,HOBO +U30 +Weather +,2013-11-10 13:00:00,
2013-11-10 08:15:00,44.1,42.7,-100.00,West,267,4.5,11.2,94,0.00,,,-99.99,HOBO +U30 +Weather +,2013-11-10 13:15:00,
2013-11-10 08:30:00,43.5,42.0,-100.00,West,267,5.4,13.0,94,0.00,,,-99.99,HOBO +U30 +Weather +,2013-11-10 13:30:00,
2013-11-10 08:45:00,44.3,42.6,-100.00,West,263,4.5,10.3,93,0.00,,,-99.99,HOBO +U30 +Weather +,2013-11-10 13:45:00,
2013-11-10 09:00:00,45.3,43.4,-100.00,West,264,4.5,10.1,93,0.00,,,-99.99,HOBO +U30 +Weather +,2013-11-10 14:00:00,
2013-11-10 09:15:00,45.3,43.1,-100.00,West,268,5.4,12.5,91,0.00,,,-99.99,HOBO +U30 +Weather +,2013-11-10 14:15:00,
2013-11-10 09:30:00,45.8,43.1,-100.00,West,277,4.5,13.0,90,0.00,,,-99.99,HOBO +U30 +Weather +,2013-11-10 14:30:00,
2013-11-10 09:45:00,45.6,42.4,-100.00,West,270,4.5,9.2,88,0.00,,,-99.99,HOBO +U30 +Weather +,2013-11-10 14:45:00,
2013-11-10 10:00:00,47.0,43.1,-100.00,West,272,4.9,10.1,86,0.00,,,-99.99,HOBO +U30 +Weather +,2013-11-10 15:00:00,
2013-11-10 10:15:00,47.8,43.0,-100.00,West,279,3.4,9.6,83,0.00,,,-99.99,HOBO +U30 +Weather +,2013-11-10 15:15:00,
2013-11-10 10:30:00,52.3,45.9,-100.00,West,281,3.4,7.8,78,0.00,,,-99.99,HOBO +U30 +Weather +,2013-11-10 15:30:00,
2013-11-10 10:45:00,55.0,45.7,-100.00,WNW,296,2.9,5.8,70,0.00,,,-99.99,HOBO +U30 +Weather +,2013-11-10 15:45:00,
2013-11-10 11:00:00,56.8,47.6,-100.00,NW,317,2.9,7.2,71,0.00,,,-99.99,HOBO +U30 +Weather +,2013-11-10 16:00:00,
2013-11-10 11:15:00,55.6,45.4,-100.00,WNW,300,3.4,6.7,68,0.00,,,-99.99,HOBO +U30 +Weather +,2013-11-10 16:15:00,
2013-11-10 11:30:00,59.7,45.7,-100.00,NW,306,3.4,8.3,59,0.00,,,-99.99,HOBO +U30 +Weather +,2013-11-10 16:30:00,
2013-11-10 11:45:00,54.8,43.6,-100.00,NW,309,3.8,9.6,65,0.00,,,-99.99,HOBO +U30 +Weather +,2013-11-10 16:45:00,
2013-11-10 12:00:00,51.7,42.0,-100.00,NNW,331,3.8,10.1,69,0.00,,,-99.99,HOBO +U30 +Weather +,2013-11-10 17:00:00,
2013-11-10 12:15:00,51.3,41.5,-100.00,NW,326,4.3,8.7,69,0.00,,,-99.99,HOBO +U30 +Weather +,2013-11-10 17:15:00,
2013-11-10 12:30:00,51.0,41.7,-100.00,NW,319,3.4,7.4,70,0.00,,,-99.99,HOBO +U30 +Weather +,2013-11-10 17:30:00,
2013-11-10 12:45:00,51.3,41.5,-100.00,NW,314,3.8,10.3,68,0.00,,,-99.99,HOBO +U30 +Weather +,2013-11-10 17:45:00,
2013-11-10 13:00:00,51.3,40.9,-100.00,NW,313,4.9,11.2,67,0.00,,,-99.99,HOBO +U30 +Weather +,2013-11-10 18:00:00,
2013-11-10 13:15:00,51.3,40.6,-100.00,NW,324,4.3,9.2,66,0.00,,,-99.99,HOBO +U30 +Weather +,2013-11-10 18:15:00,
2013-11-10 13:30:00,49.8,39.0,-100.00,WNW,303,6.7,17.4,66,0.00,,,-99.99,HOBO +U30 +Weather +,2013-11-10 18:30:00,
2013-11-10 13:54:00,48.0,39.5,-100.00,NW,316,6.3,15.4,72,0.00,,,-99.99,HOBO +U30 +Weather +,2013-11-10 18:54:00,
2013-11-10 14:00:00,48.1,39.3,-100.00,WNW,302,3.8,10.3,71,0.00,,,-99.99,HOBO +U30 +Weather +,2013-11-10 19:00:00,
2013-11-10 14:15:00,47.3,39.1,-100.00,WNW,286,4.5,12.1,72,0.00,,,-99.99,HOBO +U30 +Weather +,2013-11-10 19:15:00,
2013-11-10 14:30:00,47.3,39.4,-100.00,WNW,293,4.3,10.1,73,0.00,,,-99.99,HOBO +U30 +Weather +,2013-11-10 19:30:00,
2013-11-10 14:53:00,47.1,39.1,-100.00,WNW,291,3.8,10.7,73,0.00,,,-99.99,HOBO +U30 +Weather +,2013-11-10 19:53:00,
2013-11-10 15:00:00,47.2,38.8,-100.00,West,277,4.3,9.2,72,0.00,,,-99.99,HOBO +U30 +Weather +,2013-11-10 20:00:00,
2013-11-10 15:15:00,46.9,37.2,-100.00,WNW,288,4.5,14.1,68,0.00,,,-99.99,HOBO +U30 +Weather +,2013-11-10 20:15:00,
2013-11-10 15:30:00,46.3,36.8,-100.00,WNW,291,4.5,10.1,69,0.00,,,-99.99,HOBO +U30 +Weather +,2013-11-10 20:30:00,
2013-11-10 15:45:00,45.8,36.4,-100.00,WNW,298,4.3,10.7,69,0.00,,,-99.99,HOBO +U30 +Weather +,2013-11-10 20:45:00,
2013-11-10 16:03:00,45.2,36.1,-100.00,WNW,298,4.9,11.6,70,0.00,,,-99.99,HOBO +U30 +Weather +,2013-11-10 21:03:00,
2013-11-10 16:15:00,44.6,36.2,-100.00,WNW,302,5.4,11.6,72,0.00,,,-99.99,HOBO +U30 +Weather +,2013-11-10 21:15:00,
2013-11-10 16:30:00,43.5,36.0,-100.00,WNW,303,4.5,10.7,74,0.00,,,-99.99,HOBO +U30 +Weather +,2013-11-10 21:30:00,
2013-11-10 16:45:00,42.4,35.6,-100.00,WNW,302,4.3,9.6,76,0.00,,,-99.99,HOBO +U30 +Weather +,2013-11-10 21:45:00,
2013-11-10 17:02:00,42.1,35.5,-100.00,WNW,303,4.3,10.1,77,0.00,,,-99.99,HOBO +U30 +Weather +,2013-11-10 22:02:00,
2013-11-10 17:15:00,41.4,35.2,-100.00,NW,314,3.4,6.7,78,0.00,,,-99.99,HOBO +U30 +Weather +,2013-11-10 22:15:00,
2013-11-10 17:30:00,40.8,34.7,-100.00,WNW,302,2.5,6.7,78,0.00,,,-99.99,HOBO +U30 +Weather +,2013-11-10 22:30:00,
2013-11-10 17:45:00,41.2,34.8,-100.00,NW,310,3.4,7.2,77,0.00,,,-99.99,HOBO +U30 +Weather +,2013-11-10 22:45:00,
2013-11-10 18:03:00,40.1,34.2,-100.00,WNW,302,2.5,6.7,79,0.00,,,-99.99,HOBO +U30 +Weather +,2013-11-10 23:03:00,
2013-11-10 18:15:00,39.5,33.8,-100.00,NW,313,2.0,6.7,80,0.00,,,-99.99,HOBO +U30 +Weather +,2013-11-10 23:15:00,
2013-11-10 18:30:00,40.5,34.7,-100.00,WNW,302,2.0,7.4,79,0.00,,,-99.99,HOBO +U30 +Weather +,2013-11-10 23:30:00,
2013-11-10 18:45:00,38.2,32.9,-100.00,NNW,329,1.6,4.5,81,0.00,,,-99.99,HOBO +U30 +Weather +,2013-11-10 23:45:00,
2013-11-10 19:04:00,40.0,34.6,-100.00,NW,321,2.5,7.4,80,0.00,,,-99.99,HOBO +U30 +Weather +,2013-11-11 00:04:00,
2013-11-10 19:15:00,40.2,34.5,-100.00,NW,320,2.9,8.7,80,0.00,,,-99.99,HOBO +U30 +Weather +,2013-11-11 00:15:00,
2013-11-10 19:30:00,39.2,34.1,-100.00,NW,323,2.9,7.2,81,0.00,,,-99.99,HOBO +U30 +Weather +,2013-11-11 00:30:00,
2013-11-10 19:45:00,39.9,34.5,-100.00,NW,313,3.4,7.2,80,0.00,,,-99.99,HOBO +U30 +Weather +,2013-11-11 00:45:00,
2013-11-10 20:02:00,40.4,34.2,-100.00,NW,316,4.5,11.6,78,0.00,,,-99.99,HOBO +U30 +Weather +,2013-11-11 01:02:00,
2013-11-10 20:15:00,40.9,34.3,-100.00,NW,317,4.5,13.2,77,0.00,,,-99.99,HOBO +U30 +Weather +,2013-11-11 01:15:00,
2013-11-10 20:30:00,40.6,34.1,-100.00,NW,310,4.5,15.4,77,0.00,,,-99.99,HOBO +U30 +Weather +,2013-11-11 01:30:00,
2013-11-10 20:45:00,39.5,33.1,-100.00,WNW,291,3.8,11.6,77,0.00,,,-99.99,HOBO +U30 +Weather +,2013-11-11 01:45:00,
2013-11-10 21:02:00,39.5,33.5,-100.00,NW,313,3.4,7.8,78,0.00,,,-99.99,HOBO +U30 +Weather +,2013-11-11 02:02:00,
2013-11-10 21:15:00,41.6,34.9,-100.00,NW,309,4.5,10.7,77,0.00,,,-99.99,HOBO +U30 +Weather +,2013-11-11 02:15:00,
2013-11-10 21:30:00,41.2,34.2,-100.00,NW,305,4.9,12.1,75,0.00,,,-99.99,HOBO +U30 +Weather +,2013-11-11 02:30:00,
2013-11-10 21:45:00,41.3,34.4,-100.00,NW,319,4.9,9.2,76,0.00,,,-99.99,HOBO +U30 +Weather +,2013-11-11 02:45:00,
2013-11-10 22:00:00,41.4,34.8,-100.00,NW,324,4.5,9.2,77,0.00,,,-99.99,HOBO +U30 +Weather +,2013-11-11 03:00:00,
2013-11-10 22:15:00,41.9,34.7,-100.00,NW,323,3.8,7.2,75,0.00,,,-99.99,HOBO +U30 +Weather +,2013-11-11 03:15:00,
2013-11-10 22:30:00,42.2,34.6,-100.00,NW,317,4.3,7.4,74,0.00,,,-99.99,HOBO +U30 +Weather +,2013-11-11 03:30:00,
2013-11-10 22:45:00,42.2,34.2,-100.00,NW,323,4.3,10.1,73,0.00,,,-99.99,HOBO +U30 +Weather +,2013-11-11 03:45:00,
2013-11-10 23:00:00,42.3,34.1,-100.00,NNW,331,4.9,12.5,72,0.00,,,-99.99,HOBO +U30 +Weather +,2013-11-11 04:00:00,
2013-11-10 23:15:00,41.7,33.5,-100.00,NNW,327,7.8,18.6,72,0.00,,,-99.99,HOBO +U30 +Weather +,2013-11-11 04:15:00,
2013-11-10 23:30:00,40.4,32.5,-100.00,NNW,331,7.8,17.4,73,0.00,,,-99.99,HOBO +U30 +Weather +,2013-11-11 04:30:00,
2013-11-10 23:45:00,39.8,32.4,-100.00,NNW,327,7.2,17.9,74,0.00,,,-99.99,HOBO +U30 +Weather +,2013-11-11 04:45:00,